Vertical_Velocity
1 -2 -3 3 0 1 -10 -21 0 -7 3 52 23 10 11 -1 1 -7 -9 -2 -0 -3 -0 -1 6 3 2 -1 2 -1 -1 -1 3 4 1 3 8 -3 -1 -3 -1 1 1 2 1 1 1 1 -1
0 1 3 2 -2 -1 -10 -7 -1 6 32 -23 -24 -28 3 -3 -2 6 -18 4 2 -2 3 1 3 0 1 -1 2 -1 0 -1 1 3 1 -0 8 -3 -2 -1 -3 0 -0 1 -1 -1 2 -1 -1
-1 0 3 -3 -3 -18 -14 3 2 17 51 13 -22 -1 23 -4 -8 10 -19 1 1 4 3 -2 -0 -1 -1 -2 1 0 -1 -1 -0 2 4 -1 9 -2 -0 -4 -1 -1 -1 -1 -0 -0 0 1 2
-2 -1 2 -3 -9 -6 -10 -17 -3 -10 40 -2 4 8 -2 12 -1 3 -7 -7 -2 15 1 -1 -1 -2 0 -3 2 -1 -0 1 -2 1 0 1 3 -1 0 -3 -2 -2 1 -2 1 -2 1 0 -0
-1 2 -2 -4 -8 -11 -8 9 20 17 37 6 -5 13 -3 7 -4 -1 -8 -12 -3 7 4 2 -3 -1 -2 0 0 -2 0 1 0 2 -1 4 4 1 0 -0 -0 1 2 -4 1 -1 0 2 1
-1 1 -1 -5 -10 -7 7 16 39 15 12 6 -3 -10 17 1 -2 4 -6 -5 -6 -4 -1 2 -2 -3 -4 3 -2 -1 2 1 2 2 1 7 2 -1 1 1 -2 2 -10 6 -1 1 2 -1 2
-6 3 -6 -1 -8 -15 3 17 11 9 -9 -9 -2 -2 9 7 -8 -3 -3 -9 -3 -3 -3 1 -2 -2 -1 1 -2 -1 2 0 2 1 -2 4 4 0 -4 -3 -0 2 -0 -2 1 1 1 1 -1
-3 6 -8 -6 -4 -30 -5 7 36 19 13 6 3 0 17 3 0 1 1 -5 -1 4 -1 1 -1 -3 0 1 -2 0 0 1 -1 -0 -2 2 -1 -3 -5 -1 -3 -8 -2 -4 -2 0 3 1 1
1 3 -7 -12 -0 -19 -5 11 17 19 6 8 1 8 5 -4 -1 2 3 -5 -2 -0 8 -0 -0 -1 -1 -1 -1 -1 0 2 1 -3 -3 3 -1 -1 1 4 7 -2 4 -3 2 2 0 4 -2
-1 -4 -9 2 -3 -5 -3 15 11 5 4 -1 -4 11 -4 4 -5 -5 -6 -4 0 -2 6 4 1 -1 -3 -3 -1 -2 -0 2 2 -1 -8 0 2 2 1 -1 3 6 4 1 1 -0 2 0 -2
3 -1 -1 -9 -6 2 -2 -11 6 5 -6 4 4 -11 58 13 1 -1 -1 -10 2 -1 3 1 2 -1 -2 -1 -1 -1 0 2 0 -1 -5 2 -0 -0 -4 -5 3 -4 -1 -2 -0 -2 -0 2 -0
9 4 11 12 22 14 7 -12 -10 3 -2 -3 -0 -5 -16 22 24 15 4 -6 -5 -8 -1 2 1 1 1 -2 -3 1 0 1 -1 0 -5 -1 -1 -2 -2 -1 -1 -3 -1 -1 -2 2 2 3 -2
-7 2 1 3 -1 -3 2 -1 -5 -40 -1 6 -5 -4 -5 -11 6 14 16 18 2 -4 -0 1 2 0 1 -0 -2 -2 -1 0 2 2 -3 1 -1 -1 1 1 1 -0 -4 -2 -2 2 -1 2 2
1 -3 -9 -3 -6 0 -2 -9 15 -29 24 -6 2 -19 -13 -9 -8 4 18 25 -7 6 -5 -1 5 -0 -1 1 0 -1 0 0 2 -3 -8 2 -5 -2 1 -0 -1 0 0 1 -1 1 -2 1 -1
-3 -11 -1 6 18 -1 0 -14 -4 22 34 7 -13 -18 -8 -8 -4 -12 4 16 8 2 5 -3 5 2 2 2 1 0 -3 4 3 6 3 4 -12 7 5 2 -0 -1 0 2 2 -1 -0 3 1
-3 10 2 5 6 7 23 -24 -11 14 1 -10 27 2 15 1 -1 -1 -9 9 29 -6 5 -9 -1 2 1 3 1 0 0 -1 6 6 -3 -2 -3 -12 1 0 5 1 -1 1 2 -1 -2 5 -1
23 0 -7 -27 16 -21 7 -35 -17 9 1 -7 13 13 26 1 5 11 4 -5 9 -11 10 0 2 -2 5 2 2 1 3 1 2 12 -0 8 1 -7 -0 -3 9 5 0 1 4 3 7 -2 8
-8 -14 -5 -6 2 -8 -9 -13 -16 -17 -3 -7 6 6 27 34 49 47 116 61 3 17 -6 14 -5 -1 2 13 8 1 3 3 8 6 3 -17 16 9 -14 -10 -4 8 2 -6 4 2 17 6 1
3 3 8 7 6 -2 -4 -8 -6 -15 -3 -3 49 -22 -12 1 9 15 18 13 12 83 -17 13 -8 3 -4 -3 -2 -1 1 4 -5 -1 5 -18 7 4 2 -4 -8 10 3 1 9 8 -3 -4 2
12 4 -3 -12 -5 0 -0 -18 -7 15 28 37 3 -5 -9 -11 -11 -1 -0 1 11 -1 27 9 -3 -1 3 -4 -2 1 10 6 7 3 1 -6 -18 2 4 6 4 6 12 6 6 3 -1 -3 3
2 2 -5 11 -16 9 -4 -16 20 -0 2 1 -2 -4 -7 -13 -12 5 4 4 11 9 -11 47 6 -3 -6 -2 -1 11 7 4 -7 -2 1 4 -15 -5 1 -1 -4 -7 15 7 10 7 -2 -2 4
-3 -0 -5 -7 9 -6 23 -26 30 -7 -5 -5 -3 -2 -1 -4 -10 -6 1 3 10 10 -1 -8 61 -1 -1 1 -4 -15 5 -1 0 4 2 -3 -4 5 -31 -13 -10 0 -3 23 7 5 1 5 5
6 1 2 7 -7 20 -9 21 11 4 -7 -11 -3 -2 -1 2 -0 -4 -6 -3 4 9 2 -2 8 47 7 -2 5 -1 -25 7 -3 6 3 4 2 -4 -5 3 -0 -11 13 2 12 -11 -2 6 -2
5 -15 -7 -5 4 11 10 0 4 -7 4 -1 -2 2 0 -3 3 2 2 -3 1 8 4 -1 5 3 36 -2 0 1 2 4 -13 -5 -5 3 -2 4 6 -6 8 -4 -17 -13 -14 4 2 3 3
13 -0 -8 -3 -0 -3 21 -22 22 5 0 4 -6 -0 -6 -7 0 -1 3 -0 4 9 5 1 8 8 10 60 5 2 -2 -9 -3 2 7 -14 -4 -13 -15 -21 -10 2 -14 5 3 -9 7 2 -4
1 9 10 1 1 -4 15 4 18 8 10 6 7 1 5 2 -0 1 5 8 2 5 4 3 27 -42 -14 7 45 20 7 -7 -9 -5 8 6 -3 -2 11 -2 1 9 -26 -2 -7 -0 1 7 2
-17 -3 2 11 -1 12 1 17 6 -3 -1 2 1 4 -2 -0 -6 -2 0 7 5 2 5 6 14 19 -46 5 -7 4 35 2 -2 -3 -1 -1 6 -1 3 5 -3 7 -7 1 7 1 -2 -2 2
20 15 -14 7 4 2 6 1 15 -7 -13 -3 -7 2 13 5 3 3 4 8 2 -1 4 8 7 -1 7 6 -1 4 7 20 2 -6 1 2 7 4 2 4 2 -1 -7 -3 0 -2 4 3 1
-51 -8 5 17 -7 4 -0 4 9 15 -1 -0 1 -0 -3 11 -1 1 2 6 1 -2 -1 2 4 6 1 8 -4 6 4 5 16 -5 -8 1 9 4 2 4 6 1 -2 -2 -4 -2 3 4 5
17 13 6 2 -0 -2 -8 8 1 3 3 5 -0 6 13 0 -12 -1 4 5 3 -3 -2 -4 0 0 0 6 2 12 1 4 11 12 0 -6 -0 4 3 1 2 4 1 -7 -2 -5 -2 -3 1
Height
3132 3132 3131 3133 3138 3133 3126 3125 3127 3126 3129 3132 3127 3129 3128 3125 3125 3125 3127 3130 3133 3134 3135 3133 3132 3131 3131 3130 3131 3131 3133 3136 3137 3140 3143 3145 3148 3152 3155 3159 3162 3166 3168 3171 3173 3174 3175 3176 3177
3130 3130 3130 3129 3131 3131 3120 3124 3124 3129 3132 3124 3128 3129 3127 3122 3124 3122 3125 3130 3132 3132 3132 3131 3130 3129 3129 3129 3129 3129 3131 3134 3136 3138 3141 3145 3147 3151 3155 3159 3163 3166 3169 3172 3174 3175 3176 3177 3178
3127 3127 3128 3127 3126 3123 3118 3123 3125 3127 3130 3125 3124 3128 3127 3119 3124 3122 3125 3128 3131 3132 3130 3129 3128 3127 3126 3126 3127 3128 3129 3132 3134 3137 3140 3144 3146 3150 3155 3159 3162 3166 3169 3172 3174 3175 3175 3177 3179
3124 3125 3126 3123 3121 3120 3120 3120 3123 3125 3129 3125 3123 3125 3127 3121 3121 3122 3122 3127 3129 3131 3128 3127 3126 3125 3125 3124 3125 3126 3127 3130 3132 3135 3137 3142 3144 3149 3154 3158 3162 3166 3168 3171 3174 3175 3176 3177 3178
3122 3123 3122 3121 3119 3118 3119 3122 3124 3123 3125 3121 3121 3123 3122 3121 3120 3122 3120 3125 3127 3129 3127 3126 3124 3124 3123 3122 3123 3124 3126 3128 3130 3132 3134 3141 3145 3149 3153 3156 3161 3165 3167 3171 3173 3174 3175 3177 3178
3119 3121 3119 3117 3117 3116 3118 3124 3126 3121 3119 3119 3119 3122 3120 3117 3119 3121 3119 3121 3122 3125 3124 3123 3123 3122 3122 3121 3122 3124 3125 3126 3128 3131 3133 3140 3144 3149 3152 3155 3159 3163 3167 3171 3173 3174 3175 3177 3178
3115 3118 3116 3117 3116 3112 3113 3119 3122 3120 3118 3118 3118 3120 3117 3116 3115 3117 3116 3119 3120 3122 3122 3122 3121 3120 3120 3120 3121 3123 3123 3124 3127 3130 3131 3138 3143 3147 3150 3154 3157 3160 3165 3169 3172 3173 3175 3178 3177
3115 3117 3114 3113 3114 3110 3111 3116 3121 3117 3115 3115 3115 3117 3115 3115 3116 3115 3114 3115 3118 3121 3121 3120 3119 3119 3118 3119 3120 3121 3122 3123 3126 3128 3131 3137 3141 3145 3147 3151 3155 3158 3163 3166 3170 3173 3175 3177 3177
3112 3112 3109 3109 3112 3110 3110 3112 3114 3116 3114 3114 3115 3115 3113 3113 3114 3113 3113 3113 3116 3118 3120 3117 3117 3117 3117 3117 3118 3120 3121 3123 3126 3128 3131 3135 3138 3141 3144 3147 3151 3156 3160 3164 3167 3172 3175 3177 3177
3109 3107 3106 3109 3110 3109 3107 3108 3108 3110 3111 3112 3111 3115 3112 3112 3111 3110 3109 3111 3112 3115 3117 3115 3115 3115 3115 3115 3116 3118 3119 3121 3123 3126 3129 3133 3137 3140 3142 3145 3147 3152 3157 3162 3165 3170 3174 3176 3176
3106 3102 3106 3106 3108 3108 3105 3101 3103 3104 3106 3108 3110 3110 3113 3113 3110 3108 3105 3103 3104 3108 3111 3112 3112 3112 3112 3113 3114 3116 3118 3121 3123 3125 3129 3131 3135 3137 3140 3142 3145 3149 3153 3156 3162 3168 3173 3175 3177
3103 3102 3104 3104 3105 3104 3102 3100 3096 3100 3100 3103 3104 3105 3105 3107 3110 3109 3105 3101 3098 3102 3105 3108 3109 3110 3110 3111 3112 3114 3117 3119 3122 3124 3127 3128 3133 3136 3137 3141 3146 3149 3152 3156 3162 3168 3172 3174 3176
3095 3096 3096 3095 3095 3095 3094 3094 3094 3091 3094 3097 3098 3099 3099 3099 3101 3104 3105 3103 3098 3099 3102 3105 3106 3107 3108 3107 3110 3112 3114 3117 3121 3122 3126 3129 3133 3136 3139 3143 3147 3150 3153 3158 3163 3167 3170 3174 3175
3092 3090 3090 3091 3093 3093 3092 3091 3094 3089 3091 3093 3094 3093 3093 3095 3096 3097 3099 3100 3095 3095 3099 3101 3103 3104 3105 3105 3107 3110 3112 3115 3118 3118 3124 3128 3133 3136 3139 3143 3147 3150 3154 3159 3163 3166 3169 3172 3174
3087 3086 3087 3087 3088 3086 3083 3081 3085 3087 3088 3086 3086 3087 3087 3088 3088 3090 3092 3095 3092 3090 3094 3096 3098 3100 3102 3102 3103 3106 3110 3113 3116 3119 3121 3125 3130 3131 3139 3144 3147 3151 3154 3158 3162 3165 3168 3171 3173
3085 3084 3081 3081 3079 3079 3079 3074 3077 3079 3078 3076 3081 3081 3083 3082 3082 3085 3087 3089 3089 3086 3087 3091 3093 3096 3098 3099 3099 3103 3107 3110 3112 3115 3117 3123 3126 3130 3137 3142 3146 3150 3154 3156 3160 3163 3166 3170 3173
3083 3078 3076 3072 3076 3072 3074 3070 3069 3069 3071 3069 3069 3071 3075 3074 3073 3080 3083 3083 3085 3082 3081 3084 3088 3091 3094 3095 3096 3099 3103 3106 3109 3110 3113 3117 3122 3125 3134 3139 3144 3148 3151 3154 3158 3161 3165 3168 3170
3077 3075 3073 3073 3073 3072 3071 3067 3064 3063 3063 3064 3063 3062 3063 3065 3066 3068 3079 3081 3080 3077 3076 3078 3083 3087 3089 3091 3093 3094 3098 3102 3105 3108 3107 3115 3115 3122 3124 3133 3140 3146 3149 3152 3156 3160 3160 3166 3169
3076 3074 3071 3068 3067 3068 3066 3060 3057 3057 3058 3059 3057 3046 3045 3047 3049 3052 3056 3062 3062 3072 3073 3073 3079 3083 3084 3087 3088 3090 3092 3097 3100 3105 3108 3112 3115 3118 3124 3129 3134 3142 3146 3150 3153 3157 3160 3162 3166
3071 3066 3063 3061 3063 3065 3059 3054 3053 3054 3055 3047 3036 3035 3034 3036 3040 3043 3046 3050 3054 3055 3062 3063 3072 3077 3081 3084 3085 3086 3089 3093 3096 3101 3107 3106 3112 3113 3120 3124 3129 3135 3140 3144 3148 3151 3156 3159 3163
3065 3064 3061 3060 3056 3056 3055 3050 3051 3046 3042 3035 3034 3032 3031 3032 3034 3035 3037 3043 3046 3050 3052 3061 3064 3070 3075 3079 3080 3082 3084 3088 3092 3095 3100 3103 3106 3112 3115 3121 3124 3130 3135 3140 3142 3146 3151 3157 3161
3061 3061 3059 3056 3056 3052 3052 3045 3048 3039 3037 3031 3027 3023 3024 3028 3029 3029 3031 3035 3039 3042 3045 3049 3059 3063 3067 3070 3073 3076 3079 3081 3084 3090 3097 3101 3104 3110 3114 3120 3122 3125 3129 3131 3136 3143 3150 3154 3158
3059 3056 3054 3051 3049 3045 3043 3047 3041 3035 3031 3029 3025 3021 3021 3020 3020 3023 3026 3028 3031 3035 3039 3043 3048 3058 3061 3064 3066 3066 3070 3070 3080 3085 3091 3096 3100 3104 3106 3113 3118 3119 3122 3127 3131 3138 3145 3151 3153
3053 3047 3045 3042 3043 3039 3041 3037 3039 3037 3037 3029 3025 3019 3016 3016 3014 3016 3018 3021 3024 3027 3030 3036 3038 3042 3055 3056 3058 3061 3065 3067 3072 3077 3083 3089 3093 3099 3103 3109 3111 3116 3114 3123 3132 3136 3143 3147 3149
3043 3044 3039 3037 3035 3033 3033 3038 3045 3042 3037 3032 3026 3020 3016 3013 3009 3009 3010 3013 3017 3018 3021 3026 3025 3029 3034 3047 3050 3052 3057 3061 3066 3070 3074 3078 3083 3088 3096 3102 3105 3111 3113 3121 3129 3130 3136 3141 3144
3043 3041 3038 3035 3032 3033 3029 3038 3046 3042 3037 3032 3027 3021 3015 3009 3006 3004 3004 3006 3009 3010 3012 3016 3016 3017 3019 3030 3038 3047 3048 3052 3057 3063 3068 3072 3078 3084 3091 3096 3098 3106 3109 3115 3120 3127 3131 3134 3140
3037 3034 3032 3031 3029 3030 3040 3039 3033 3036 3032 3027 3023 3018 3012 3005 3003 3000 2999 2999 2999 3000 3003 3006 3005 3014 3008 3023 3029 3035 3043 3044 3048 3056 3060 3066 3072 3078 3083 3089 3093 3100 3104 3109 3116 3121 3125 3129 3134
3040 3034 3028 3026 3020 3019 3037 3041 3046 3037 3030 3026 3020 3015 3010 3006 3000 2995 2994 2993 2993 2992 2992 2996 3000 3007 3013 3015 3023 3029 3034 3040 3044 3048 3053 3057 3064 3071 3077 3082 3088 3094 3100 3103 3108 3114 3119 3124 3127
3036 3032 3028 3027 3028 3026 3035 3050 3048 3042 3035 3028 3022 3015 3005 3000 2994 2990 2988 2988 2987 2987 2984 2987 2994 3001 3008 3011 3014 3019 3024 3031 3038 3039 3045 3049 3057 3063 3069 3074 3080 3086 3091 3096 3100 3106 3112 3117 3121
3048 3039 3033 3030 3038 3035 3040 3053 3049 3043 3037 3029 3021 3012 3006 3004 2999 2992 2984 2980 2981 2980 2978 2980 2985 2992 2997 3001 3003 3008 3016 3023 3029 3032 3036 3041 3047 3055 3061 3067 3071 3076 3082 3087 3090 3097 3103 3109 3113